Weather in Ashgabat

Turkmenistan     37˚56′06″N   58˚22′44″E
temp.,
°C
wind,
m/s
gust,
m/s
humid.,
%
clouds,
%
prec.,
mm/h
press.,
hPa
HPBL,
m
1 december, tue
tue123:00+4˚e225196 0.1 1027339
02:00+4˚ene115469 0.0 1026207
05:00+3˚ene226835 0.0 1026116
08:00+2˚e22720 0.0 1026109
11:00+5˚e22570 0.0 1026354
14:00+9˚ene22470 0.0 1024618
17:00+10˚ene33450 0.0 1023557
20:00+7˚ese23540 0.0 1025127
2 december, wed
wed223:00+6˚e22580 0.0 102599
02:00+5˚e23590 0.0 1025106
05:00+5˚ene11631 0.0 102522
08:00+4˚ene01643 0.0 102622
11:00+8˚e12491 0.0 1026308
14:00+11˚ene12380 0.0 1025646
17:00+12˚nne12361 0.0 1024427
20:00+9˚ene224226 0.0 102657
3 december, thu
thu323:00+6˚ene234723 0.0 102697
02:00+6˚e114967 0.0 102662
05:00+6˚ene125083 0.0 102663
08:00+6˚nne1149100 0.0 102774
11:00+7˚ne1145100 0.0 1028283
14:00+9˚n213999 0.0 1027618
17:00+10˚n113899 0.0 1026583
20:00+6˚nne344451 0.0 1028192
4 december, fri
fri423:00+5˚ene114750 0.0 1029103
02:00+4˚ene22490 0.0 102994
05:00+3˚e12480 0.0 102997
08:00+3˚e22460 0.0 103086
11:00+5˚ene33378 0.0 1031330
14:00+9˚e33330 0.0 1028655
17:00+9˚ene44330 0.0 1028537
20:00+6˚e46393 0.0 1028236
5 december, sat
sat523:00+5˚e47382 0.0 1028302
02:00+3˚e47400 0.0 1027266
05:00+2˚e36430 0.0 1027219
08:00+1˚e35440 0.0 1027203
11:00+5˚e453518 0.0 1027438
14:00+9˚e452935 0.0 1024838
17:00+8˚ene552917 0.0 1024629
20:00+5˚ese36356 0.0 1025255